Regional Weather Roundup
Issued by NWS

Home | Current Version | Previous Version | Text Only | Print | Product List | Glossary Off
Versions: 1 2 3 4 5 6 7 8 9 10 11 12 13 14 15 16 17 18 19 20 21 22 23 24 25 26 27 28 29 30 31 32 33 34 35 36 37 38 39 40 41 42 43 44 45 46 47 48 49 50

000
ASUS44 KOUN 270910
RWROK

WEATHER ROUNDUP FOR OKLAHOMA
NATIONAL WEATHER SERVICE NORMAN OK
400 AM CDT WED AUG 27 2014

NOTE: "FAIR" INDICATES FEW OR NO CLOUDS BELOW 12,000 FEET WITH NO
      SIGNIFICANT WEATHER AND/OR OBSTRUCTIONS TO VISIBILITY.

OKZ001>007-009>012-014-015-017-271000-
NORTHWEST OKLAHOMA AND THE PANHANDLE

CITY           SKY/WX    TMP DP  RH WIND       PRES   REMARKS
GAGE           CLOUDY    71  66  84 CALM      30.10S
ENID/WOODRING  MOCLDY    72  66  83 CALM      30.06S
$$

OKZ016-021>023-033>039-044-045-271000-
SOUTHWEST OKLAHOMA

CITY           SKY/WX    TMP DP  RH WIND       PRES   REMARKS
LAWTON/REGL    CLEAR     77  66  68 SE3       30.05F
LAWTON/FT SILL CLEAR     77  67  72 S7        30.04F
FREDERICK      CLEAR     78  66  66 E9        30.02S
CLINTON        PTCLDY    77  64  64 S8        30.10F
HOBART         CLEAR     79  66  64 SE12      30.07S
ALTUS AFB      CLEAR     77  66  68 SE8       30.05F
$$

OKZ018>020-024>031-271000-
CENTRAL OKLAHOMA

CITY           SKY/WX    TMP DP  RH WIND       PRES   REMARKS
OKLAHOMA CITY  PTCLDY    73  67  81 SE7       30.07S
OKC/WILEY POST CLEAR     77  68  73 S9        30.07S
OKC/TINKER AFB CLEAR     74  68  80 S8        30.07S
STILLWATER     CLEAR     74  66  76 CALM      30.05F
GUTHRIE        CLEAR     77  68  73 S5        30.06F
$$

OKZ008-013-054>072-271000-
NORTHEAST OKLAHOMA

CITY           SKY/WX    TMP DP  RH WIND       PRES   REMARKS
TULSA          PTCLDY    80  69  69 S7        30.04S
TULSA/JONES    CLEAR     71  69  93 CALM      30.06S
PONCA CITY     PTCLDY    79  66  64 S5        30.05F
BARTLESVILLE   CLEAR     68  68 100 CALM      30.07S FOG
MUSKOGEE       CLEAR     73  69  87 SE5       30.08R
$$

OKZ032-040>043-046>053-073>077-271000-
SOUTH CENTRAL/SOUTHEAST OKLAHOMA

CITY           SKY/WX    TMP DP  RH WIND       PRES   REMARKS
ARDMORE/DWNTWN CLEAR     73  68  83 CALM      30.05S
MCALESTER      CLEAR     71  69  93 CALM      30.07S
$$



USA.gov is the U.S. government's official web portal to all federal, state and local government web resources and services.